Flag for Turkey Weather past 2 weeks in Izmir, Turkey

Now
59 °F

Scattered clouds.


Feels Like: 57 °F
Forecast: 52 / 65 °F
Wind: 12 mph from South

Location: Izmir / Adnan Menderes


UV Index: 0 (Low)

Visibility: N/A


Pressure: 29.77 "Hg

Humidity: 59%

Dew point: 45 °F

Location of IzmirLocation

Historic Weather in Izmir

°F

Izmir temperature yesterday

Maximum temperature yesterday: 70 °F (at 12:50 PM)
Minimum temperature yesterday: 46 °F (at 6:50 AM)
Average temperature yesterday: 60 °F

Past Weeks' High & Low Weather Summary

 TemperatureHumidityPressure
High77 °F (Apr 6, 1:50 PM)94% (Apr 11, 2:20 AM)30.09 "Hg (Apr 11, 2:20 AM)
Low36 °F (Apr 13, 5:50 AM)24% (Apr 6, 12:50 PM)29.62 "Hg (Apr 18, 4:20 AM)
Average58 °F63%29.93 "Hg
* Reported Apr 3 6:20 PM — Apr 18 6:20 PM, Izmir, Weather by CustomWeather, © 2014

Note: Actual official high and low records may vary slightly from our data, if they occured in-between our weather recording intervals... More about our weather records

Advertising

Historic Weather Conditions — Data for Previous 24 hours

 ConditionsComfort  
Time TempWeatherWind HumidityBarometerVisibility
6:20 PM
Apr 18
59 °FPartly sunny.15 mph63%29.77 "HgN/A
5:50 PM59 °FPartly sunny.16 mph63%29.77 "HgN/A
5:20 PM61 °FScattered clouds.17 mph59%29.77 "HgN/A
4:50 PM61 °FScattered clouds.17 mph59%29.77 "HgN/A
4:20 PM59 °FScattered clouds.16 mph68%29.77 "HgN/A
3:50 PM61 °FScattered clouds.16 mph63%29.77 "HgN/A
3:20 PM61 °FPartly sunny.21 mph59%29.77 "HgN/A
2:50 PM61 °FBroken clouds.17 mph59%29.77 "HgN/A
2:20 PM59 °FPartly sunny.17 mph63%29.77 "HgN/A
1:58 PM59 °FSprinkles. Broken clouds.18 mph63%29.77 "HgN/A
1:20 PM61 °FBroken clouds.17 mph48%29.74 "HgN/A
12:50 PM61 °FBroken clouds.14 mph52%29.74 "HgN/A
12:20 PM61 °FBroken clouds.14 mph55%29.74 "HgN/A
11:50 AM61 °FBroken clouds.15 mph52%29.74 "HgN/A
11:20 AM59 °FBroken clouds.13 mph59%29.74 "HgN/A
10:50 AM59 °FBroken clouds.12 mph59%29.74 "HgN/A
10:20 AM57 °FBroken clouds.9 mph67%29.71 "HgN/A
9:50 AM55 °FBroken clouds.12 mph72%29.71 "HgN/A
9:20 AM55 °FBroken clouds.8 mph82%29.71 "HgN/A
8:50 AM50 °FSprinkles. Broken clouds.5 mph88%29.71 "HgN/A
8:20 AM54 °FBroken clouds.14 mph88%29.65 "HgN/A
7:50 AM52 °FBroken clouds.14 mph94%29.65 "HgN/A
7:20 AM52 °FPartly cloudy.12 mph94%29.65 "HgN/A
6:50 AM54 °FSprinkles. Partly cloudy.9 mph88%29.65 "HgN/A
6:20 AM54 °FSprinkles. Partly cloudy.8 mph88%29.65 "HgN/A
5:50 AM54 °FSprinkles. Partly cloudy.13 mph88%29.65 "HgN/A
5:20 AM54 °FPartly cloudy.5 mph88%29.62 "HgN/A
4:50 AM54 °FSprinkles. Partly cloudy.6 mph88%29.62 "HgN/A
4:20 AM54 °FSprinkles. Partly cloudy.10 mph88%29.62 "HgN/A
3:50 AM54 °FSprinkles. Partly cloudy.9 mph94%29.68 "Hg5 mi
3:20 AM54 °FSprinkles. Partly cloudy.5 mph94%29.65 "HgN/A
2:50 AM54 °FThunderstorms. Partly cloudy.7 mph94%29.68 "Hg3 mi
2:20 AM54 °FThunderstorms. Partly cloudy.3 mph94%29.65 "HgN/A
1:50 AM54 °FThunderstorms. Partly cloudy.3 mph94%29.65 "HgN/A
1:20 AM54 °FThunderstorms. Partly cloudy.6 mph88%29.68 "HgN/A
12:50 AM55 °FSprinkles. Partly cloudy.15 mph82%29.71 "Hg5 mi
12:20 AM55 °FThunderstorms. Partly cloudy.8 mph88%29.71 "Hg4 mi
11:50 PM
Apr 17
57 °FThunderstorms. Partly cloudy.12 mph88%29.68 "HgN/A
11:20 PM57 °FSprinkles. Partly cloudy.8 mph88%29.68 "HgN/A
10:50 PM59 °FSprinkles. Partly cloudy.1 mph82%29.68 "HgN/A
10:20 PM59 °FSprinkles. Partly cloudy.5 mph82%29.68 "HgN/A
9:50 PM61 °FSprinkles. Partly cloudy.6 mph72%29.68 "HgN/A
9:20 PM61 °FPartly cloudy.7 mph72%29.68 "HgN/A
8:50 PM63 °FPartly cloudy.2 mph59%29.68 "HgN/A
7:50 PM63 °FBroken clouds.6 mph59%29.68 "HgN/A
7:20 PM64 °FBroken clouds.9 mph52%29.68 "HgN/A
Weather by CustomWeather, © 2014

See weather overview